Location: Ingoldesthorpe
(52.8667°N, 0.5167°E)
Time: 14:58:57
(UTC+00:00)

Cosmos 2219 Rocket - Pass Details

Date: 19 May 2025
Orbit: 828 x 844 km, 71.0° (Epoch: 17 June)

Event Time Altitude Azimuth Distance (km) Brightness Sun altitude
Rises 22:18:18 0° 328° (NNW) 3,403 7.2 -14.2°
Reaches altitude 10° 22:21:09 10° 340° (NNW) 2,463 6.1 -14.4°
Maximum altitude 22:25:54 27° 37° (NE) 1,568 3.9 -14.7°
Drops below altitude 10° 22:30:36 10° 95° (E) 2,444 4.4 -14.9°
Enters shadow 22:32:29 - 104° (ESE) 3,054 4.8 -15.0°
